www.pogodaiklimat.ru

Погода и климат >> Архив погоды >> Албания >> Shkodra


ПОГОДА в Shkodra

  • Прогноз погоды в Shkodra
  • Монитор погоды в Shkodra
  • Климат города

АРХИВ ПОГОДЫ в Shkodra

Время (UTC), дата Ветер
(напр.,м/с)
 
Видим.   Явления Облачность Т
(С)
Тd
(С)
f
(%)
Тe
(С)
Тes
(С)
Комфортность P
(гПа)
Po
(гПа)
Тmin
(С)
Tmax
(С)
R
(мм)
R24
(мм)
S
(см)
12 15.11 штиль 0 4000 м дождь 10/10 800 м
[Sc]
+11.8 +9.4 85 +11 +11 1018.0 1012.8 3
15 15.11 штиль 0 4000 м дождь 9/9 900 м
[Sc]
+12.0 +9.5 85 +11 +11 1018.4 1013.2
18 15.11 штиль 0 10 км {дождь} 3/0
[Ac trans]
+10.0 +7.8 86 +9 +9 1017.6 1012.3 +12.2 6
21 15.11 штиль 0 10 км ясно +9.0 +6.6 85 +8 +8 1017.6 1012.3
00 16.11 штиль 0 10 км ясно +9.4 +7.0 85 +9 +9 1017.8 1012.5
03 16.11 В 2 10 км 5/0
[Ac trans]
+8.2 +5.9 85 +6 +6 1016.8 1011.5
06 16.11 СВ 4 10 км 9/0
[Ac trans]
+9.2 +6.6 84 +6 +6 1015.6 1010.3 +7.8
09 16.11 СВ 4 8000 м слабый дождь 10/10 900 м
[Sc]
+10.0 +7.4 84 +7 +7 1017.6 1012.3
12 16.11 З 12 15 км в посл. час дождь 10/10 1500 м
[Sc]
+12.4 +9.8 84 +9 +9 1017.5 1012.3 4
15 16.11 СЗ 8 20 км 8/0
[Ac trans]
+13.6 +10.9 84 +11 +11 1016.5 1011.3
18 16.11 СЗ 4 10 км 3/0
[Ac trans]
+10.2 +8.0 86 +8 +8 1016.4 1011.1 +14.2 4
21 16.11 В 4 10 км ясно +8.6 +6.2 85 +5 +5 1016.2 1011.0
00 17.11 В 4 10 км ясно +7.8 +5.5 85 +4 +4 1016.3 1011.0
03 17.11 В 4 10 км 8/8 1500 м
[Sc]
+9.0 +6.5 84 +6 +6 1015.4 1010.2
06 17.11 СВ 6 10 км морось 10/10 1200 м
[Sc]
+9.4 +6.9 84 +6 +6 1014.6 1009.4 +7.0 1
09 17.11 СЗ 4 15 км морось 10/10 1500 м
[Sc]
+10.4 +7.8 84 +8 +8 1015.2 1010.0
12 17.11 штиль 0 20 км {морось} 8/8 1500 м
[Sc]
+16.2 +8.4 60 +16 +17 1013.8 1008.7 2
15 17.11 В 8 20 км 10/0
[Ac und]
+15.0 +9.5 70 +13 +13 1013.3 1008.1
18 17.11 ЮВ 2 10 км 10/10 1500 м
[Sc]
+13.6 +10.1 79 +13 +13 1013.3 1008.1 +16.4 2
21 17.11 ЮЗ 4 10 км 6/6 1200 м
[Sc]
+11.6 +9.7 88 +9 +9 1014.2 1009.0
00 18.11 штиль 0 10 км 5/5 1500 м
[Sc]
+9.8 +8.5 92 +9 +9 1014.8 1009.6
03 18.11 В 4 10 км 5/5 1500 м
[Sc]
+9.0 +7.4 90 +6 +6 1014.2 1009.0
06 18.11 В 2 10 км 5/5 1500 м
[Sc]
+8.2 +6.6 90 +6 +6 1013.2 1008.0 +8.0
09 18.11 ЮЗ 4 20 км 8/0
[Ac trans]
+14.0 +7.3 64 +13 +14 1013.9 1008.7
12 18.11 З 6 20 км 10/0
[Ac und]
+14.6 +8.5 67 +13 +13 1013.3 1008.1
15 18.11 В 10 20 км 8/0
[Ac und]
+14.2 +7.8 65 +12 +12 1012.9 1007.7
18 18.11 В 12 10 км 8/0
[Ac und]
+13.4 +7.0 65 +10 +10 1012.9 1007.7 +15.2
21 18.11 В 6 10 км 4/0
[Ac trans]
+12.4 +8.7 78 +10 +10 1013.5 1008.3
00 19.11 В 6 10 км ясно +10.8 +7.9 82 +8 +8 1014.2 1008.9
03 19.11 В 6 10 км 4/0
[Ac trans]
+10.4 +7.5 82 +7 +7 1013.5 1008.3
06 19.11 В 6 10 км 4/0
[Ac trans]
+10.0 +7.8 86 +7 +7 1012.9 1007.7 +9.6
09 19.11 ЮВ 10 15 км 8/0
[Ac und]
+12.4 +8.1 75 +9 +9 1012.9 1007.7
12 19.11 СВ 6 15 км 10/10 1500 м
[Sc]
+13.2 +10.1 81 +11 +11 1011.5 1006.3
15 19.11 штиль 0 10 км в посл. час дождь 10/10 1080 м
[Sc]
+12.0 +10.4 90 +11 +11 1011.7 1006.5
18 19.11 З 4 8000 м слабый дождь 10/10 900 м
[Sc]
+11.0 +9.0 87 +9 +9 1011.1 1005.9 +14.0 2
21 19.11 З 2 10 км в посл. час дождь 8/8 1500 м
[Sc]
+10.0 +7.8 86 +8 +8 1010.4 1005.1
00 20.11 З 2 10 км {дождь} 5/0
[Ac und]
+9.0 +6.5 84 +7 +7 1010.4 1005.1 0.5
03 20.11 ЮВ 4 10 км 3/0
[Ac trans]
+7.6 +3.7 76 +4 +4 1012.0 1006.7
06 20.11 З 4 10 км ясно +6.6 +1.9 72 +3 +3 1013.6 1008.3 +6.4 0.5
09 20.11 В 4 20 км ясно +10.2 +2.8 60 +8 +10 1016.7 1011.5
12 20.11 Ю 8 20 км 3/3 1500 м
[Cu hum]
+12.4 -2.3 36 +10 +10 1017.3 1012.1
15 20.11 В 8 20 км 3/3 1500 м
[Cu med, cong]
+13.2 -4.0 30 +11 +11 1018.1 1012.9
18 20.11 СЗ 4 10 км 3/0
[Ac trans]
+8.0 +1.4 63 +5 +5 1019.7 1014.3 +14.0
21 20.11 В 4 10 км ясно +6.0 +2.9 80 +2 +2 1020.5 1015.1
00 21.11 В 4 10 км ясно +5.2 +2.7 84 +1 +1 1021.3 1015.9
03 21.11 В 4 10 км ясно +4.0 +1.9 86 -1 -1 1021.9 1016.5
06 21.11 В 4 10 км ясно +2.8 -0.4 79 -2 -2 1022.6 1017.1 +1.6
09 21.11 В 4 20 км ясно +7.6 +0.8 62 +5 +7 1023.3 1017.9
12 21.11 С 4 20 км ясно +11.0 -2.8 38 +9 +12 1022.5 1017.3
15 21.11 штиль 0 20 км 4/0
[Ac trans]
+12.8 -2.6 34 +13 +13 1021.9 1016.7
18 21.11 В 4 10 км 3/0
[Ac trans]
+7.0 +3.1 76 +4 +4 1022.7 1017.3 +14.6
21 21.11 В 4 10 км 3/0
[Ac trans]
+5.8 +3.6 86 +2 +2 1023.3 1017.9
03 22.11 В 4 10 км 8/0
[Ac trans]
+3.8 +2.3 90 -1 -1 1023.3 1017.9
06 22.11 В 2 10 км 8/0
[Ac trans]
+5.6 +3.8 88 +3 +3 1022.9 1017.5 +3.6

 

Местоположение метеостанции Shkodra (Албания): широта 42.10 долгота 19.53 высота над уровнем моря 43 м.

В архиве по умолчанию представлена погода в Shkodra за последнюю неделю. Архивные данные за месяц целиком и за предыдущие месяцы, начиная с января 2011 года, Вы можете получить, выбрав интересующий диапазон дат из раскрывающегося списка и нажав кнопку "Ввод!".

Внимание! Время в таблицах - всемирное. Для получения местного времени необходимо прибавить поправку, которая в Shkodra равна 1 ч.

Смотрите также архив погоды в соседних городах и на ближайших метеорологических станциях:

Погода в Bar (Черногория) (35 км)
Погода в Podgorica (Черногория) (38 км)
Погода в Podgorica-Grad (Черногория) (42 км)
Погода в Tivat (Черногория) (74 км)
Погода в Peshkopia (Албания) (88 км)
Погода в Tirana (Албания) (88 км)
Погода в Niksic (Черногория) (88 км)
Погода в Durres (Албания) (89 км)
Погода в Tirana Lapraka (Албания) (94 км)
Погода в Elbasan (Албания) (114 км)

Пояснения к столбцам:

Ветер - указаны скорость ветра в м/с - средняя за 10 мин, порывы в срок и между сроками (в фигурных скобках) и направление, откуда дует ветер: С - северный, СВ - северо-восточный, В - восточный, ЮВ - юго-восточный, Ю - южный, ЮЗ - юго-западный, З - западный, СЗ - северо-западный.
Видимость - горизонтальная дальность видимости в метрах или километрах. При видимости от 1 до 10 км при отсутствии осадков обычно наблюдается дымка, при ухудшении видимости до 1 км и менее - туман. В сухую погоду видимость может ухудшаться дымом, пылью или мглою.
Явления - указаны атмосферные явления, наблюдавшиеся в срок или в последний час перед сроком; фигурными скобками обозначены явления, наблюдавшиеся между сроками (за 1-3 часа до срока); квадратными скобками обозначены град или гололедные отложения с указанием их диаметра в мм.
Облачность - указаны через наклонную черту общая и нижняя облачность в баллах и высота нижней границы облаков в метрах; квадратными скобками обозначены формы облаков: Ci - перистые, Cs - перисто-слоистые, Cc - перисто-кучевые, Ac - высококучевые, As - высокослоистые, Sc - слоисто-кучевые, Ns - слоисто-дождевые, Cu - кучевые, Cb - кучево-дождевые. Подробнее классификацию облаков см. в Атласе облаков (PDF).
T - Температура воздуха - температура, измеренная на высоте 2 м над землей.
Td - Температура точки росы - температура, при понижении до которой содержащийся в воздухе водяной пар достигнет насыщения.
f - Относительная влажность воздуха - влажноcть воздуха, измеренная на высоте 2 м над землей.
Te - Эффективная температура - температура, которую ощущает одетый по сезону человек в тени. Характеристика душности погоды. При расчете учитывается влияние влажности воздуха и скорости ветра на теплоощущения человека.
Tes - Эффективная температура на солнце - температура, которую ощущает человек, с поправкой на солнечный нагрев. Характеристика знойности погоды. Зависит от высоты солнца над горизонтом, облачности и скорости ветра. Ночью, в пасмурную погоду, а также при ветре 12 м/с и более поправка равна нулю.
P - Атмосферное давление - приведенное к уровню моря атмосферное давление.
Po - Атмосферное давление - измеренное на уровне метеостанции атмосферное давление.
Tmin - Минимальная температура - минимум температуры воздуха на высоте 2 м над землей.
Tmax - Максимальная температура - максимум температуры воздуха на высоте 2 м над землей.
R - Количество осадков - Количество выпавших осадков за период времени, мм. При наведении курсора мыши на число - период времени, за который выпало указанное количество осадков.
R24 - Количество осадков - Количество выпавших осадков за 24 часа, мм.
S - Снежный покров - Высота снежного покрова, см. При наведении курсора мыши на число - состояние снежного покрова и степень покрытия местности в баллах.